User: anonymous   Login
Location: Wheeling
(40.0640°N, 80.7210°W)
Time: 00:34:49
(UTC-04:00)
Language:

ITAMSAT 1 - Orbit

View from above orbital plane
View from above orbital plane
View from above satellite
View from above satellite

Ground track
Ground track

The orbit data is extracted from the following two-line orbital elements,

1 22826U 93061D   21289.56715682  .00000022  00000-0  26320-4 0  9992
2 22826  98.9074 310.0261 0009526  35.2181 324.9628 14.30468153463545
Epoch (UTC): 16 October 2021 13:36:42
Eccentricity: 0.0009526
inclination: 98.9074°
perigee height: 783 km
apogee height: 797 km
right ascension of ascending node: 310.0261°
argument of perigee: 35.2181°
revolutions per day: 14.30468153
mean anomaly at epoch: 324.9628°
orbit number at epoch: 46354

The dashed part of the orbit path shows where the satellite is in the earth's shadow,  

DLR